Location: Buffign�court
(47.8126°N, 6.0176°E)
Time: 01:07:07
(UTC+00:00)

SL-16 R/B - Pass Details

Date: 16 June 2021
Orbit: 842 x 846 km, 71.0° (Epoch: 04 August)

Event Time Altitude Azimuth Distance (km) Brightness Sun altitude
Rises 21:41:09 0° 234° (SW) 3,391 5.3 -14.2°
Reaches altitude 10° 21:43:48 10° 243° (WSW) 2,460 4.6 -14.4°
Maximum altitude 21:48:57 35° 309° (NW) 1,331 3.8 -14.8°
Drops below altitude 10° 21:54:08 10° 15° (NNE) 2,475 5.4 -15.2°
Sets 21:56:49 0° 24° (NNE) 3,414 6.0 -15.3°
